Location: Bílinka
(49.3579°N, 14.3767°E)
Time: 09:51:16
(UTC+00:00)

FENGYUN 1C DEB - Pass Details

Date: 22 February 2024
Orbit: 850 x 890 km, 98.8° (Epoch: 12 April)

Event Time Altitude Azimuth Distance (km) Brightness Sun altitude
Rises 18:59:56 0° 197° (SSW) 3,404 ? -24.5°
Reaches altitude 10° 19:02:38 10° 209° (SSW) 2,475 ? -24.9°
Maximum altitude 19:07:17 28° 267° (W) 1,569 ? -25.7°
Drops below altitude 10° 19:11:59 10° 325° (NW) 2,505 ? -26.4°
Sets 19:14:45 0° 337° (NNW) 3,453 ? -26.8°
